This is the latest recevied weather packets stored in our database for station/object DO7ZT-13. If no packets are shown the sender has not sent any weather packets the latest 10 day(s).
| Time | Temp. | Humidity | Pressure | Rain* | Wind** | Luminosity | Snow |
|---|---|---|---|---|---|---|---|
| 1777431323 | 2.22° C | 61% | 1025.7 hPa | 0 mm | 0.89 m/s, 60° | - | - |
| 1777431010 | 2.22° C | 61% | 1025.7 hPa | 0 mm | 1.34 m/s, 72° | - | - |
| 1777430723 | 2.22° C | 61% | 1025.7 hPa | 0 mm | 2.24 m/s, 66° | - | - |
| 1777430410 | 2.22° C | 61% | 1025.7 hPa | 0 mm | 0.89 m/s, 66° | - | - |
| 1777430123 | 2.22° C | 60% | 1025.7 hPa | 0 mm | 2.24 m/s, 72° | - | - |
| 1777429812 | 0° C | 61% | 1025.7 hPa | 0 mm | 1.34 m/s, 66° | - | - |
| 1777429523 | 0° C | 72% | 1025.7 hPa | 0 mm | 0.45 m/s, 54° | - | - |
| 1777429210 | 0° C | 74% | 1025.7 hPa | 0 mm | 0 m/s | - | - |
| 1777428923 | 0° C | 74% | 1025.7 hPa | 0 mm | 0 m/s | - | - |
| 1777428610 | 0° C | 73% | 1025.7 hPa | 0 mm | 0 m/s | - | - |
| 1777428323 | 0° C | 73% | 1025.7 hPa | 0 mm | 0 m/s | - | - |
| 1777428010 | 0° C | 73% | 1025.5 hPa | 0 mm | 0 m/s | - | - |
| 1777427723 | 0° C | 73% | 1025.5 hPa | 0 mm | 0 m/s | - | - |
| 1777427410 | 0° C | 70% | 1025.5 hPa | 0 mm | 0.45 m/s, 144° | - | - |
| 1777427123 | 0° C | 65% | 1025.4 hPa | 0 mm | 0.45 m/s, 126° | - | - |
| 1777426810 | 0° C | 71% | 1025.4 hPa | 0 mm | 0 m/s | - | - |
| 1777426523 | 0° C | 71% | 1025.4 hPa | 0 mm | 0 m/s | - | - |
| 1777426210 | 0° C | 69% | 1025.2 hPa | 0 mm | 0.45 m/s, 126° | - | - |
| 1777425923 | 0° C | 70% | 1025.2 hPa | 0 mm | 0 m/s | - | - |
| 1777425610 | 0° C | 70% | 1025.2 hPa | 0 mm | 0.45 m/s, 126° | - | - |
| 1777425335 | 0° C | 71% | 1025.3 hPa | 0 mm | 0.45 m/s, 126° | - | - |
| 1777425023 | 0° C | 71% | 1025.3 hPa | 0 mm | 0.89 m/s, 126° | - | - |
| 1777424710 | 1.11° C | 63% | 1025.3 hPa | 0 mm | 0.45 m/s, 96° | - | - |
| 1777424423 | 0° C | 65% | 1025.2 hPa | 0 mm | 0.45 m/s, 78° | - | - |
| 1777424110 | 0° C | 69% | 1025.2 hPa | 0 mm | 0.45 m/s, 66° | - | - |
* Rain latest hour (hover to see other rain measurements)
** Current wind speed in m/s (hover to see current wind gust speed)